Time,TemperatureF,DewpointF,PressureIn,WindDirection,WindDirectionDegrees,WindSpeedMPH,WindSpeedGustMPH,Humidity,HourlyPrecipIn,Conditions,Clouds,dailyrainin,SoftwareType,DateUTC
2013-09-23 00:00:00,45.3,40.7,29.52,NNW,333,8.0,8.0,84,0.00,,,0.78,Wunderground v.1.15,2013-09-23 04:00:00,
2013-09-23 00:05:00,45.3,40.7,29.52,North,350,7.0,8.0,84,0.00,,,0.00,Wunderground v.1.15,2013-09-23 04:05:00,
2013-09-23 00:10:00,45.3,40.7,29.52,NW,321,7.0,11.0,84,0.00,,,0.00,Wunderground v.1.15,2013-09-23 04:10:00,
2013-09-23 00:20:00,45.1,40.6,29.53,WNW,282,7.0,8.0,84,0.00,,,0.00,Wunderground v.1.15,2013-09-23 04:20:00,
2013-09-23 00:25:00,45.0,40.5,29.53,West,277,7.0,8.0,84,0.00,,,0.00,Wunderground v.1.15,2013-09-23 04:25:00,
2013-09-23 00:35:00,44.9,40.7,29.53,NNW,346,6.0,7.0,85,0.00,,,0.00,Wunderground v.1.15,2013-09-23 04:35:00,
2013-09-23 00:40:00,44.7,40.5,29.53,WNW,295,6.0,6.0,85,0.00,,,0.00,Wunderground v.1.15,2013-09-23 04:40:00,
2013-09-23 00:45:00,44.7,40.5,29.53,NNW,327,5.0,6.0,85,0.00,,,0.00,Wunderground v.1.15,2013-09-23 04:45:00,
2013-09-23 00:55:00,44.7,40.8,29.53,NNE,26,3.0,8.0,86,0.00,,,0.00,Wunderground v.1.15,2013-09-23 04:55:00,
2013-09-23 01:05:00,44.4,40.5,29.53,NW,311,3.0,3.0,86,0.00,,,0.00,Wunderground v.1.15,2013-09-23 05:05:00,
2013-09-23 01:10:00,44.2,40.0,29.54,NW,317,4.0,5.0,85,0.00,,,0.00,Wunderground v.1.15,2013-09-23 05:10:00,
2013-09-23 01:20:00,44.0,40.1,29.54,WNW,294,3.0,6.0,86,0.00,,,0.00,Wunderground v.1.15,2013-09-23 05:20:00,
2013-09-23 01:30:00,43.8,39.9,29.54,NW,306,4.0,5.0,86,0.00,,,0.00,Wunderground v.1.15,2013-09-23 05:30:00,
2013-09-23 01:40:00,43.8,39.9,29.54,WNW,302,5.0,5.0,86,0.00,,,0.00,Wunderground v.1.15,2013-09-23 05:40:00,
2013-09-23 01:50:00,43.8,39.6,29.55,NW,313,4.0,5.0,85,0.00,,,0.00,Wunderground v.1.15,2013-09-23 05:50:00,
2013-09-23 02:00:00,43.6,39.4,29.54,West,274,4.0,4.0,85,0.00,,,0.00,Wunderground v.1.15,2013-09-23 06:00:00,
2013-09-23 02:05:00,43.4,38.9,29.55,NW,310,3.0,5.0,84,0.00,,,0.00,Wunderground v.1.15,2013-09-23 06:05:00,
2013-09-23 02:10:00,43.4,38.9,29.55,WNW,294,3.0,6.0,84,0.00,,,0.00,Wunderground v.1.15,2013-09-23 06:10:00,
2013-09-23 02:20:00,43.5,38.7,29.55,WNW,298,5.0,5.0,83,0.00,,,0.00,Wunderground v.1.15,2013-09-23 06:20:00,
2013-09-23 02:30:00,43.5,38.4,29.55,NNW,345,5.0,6.0,82,0.00,,,0.00,Wunderground v.1.15,2013-09-23 06:30:00,
2013-09-23 02:40:00,43.4,38.3,29.55,WNW,288,4.0,4.0,82,0.00,,,0.00,Wunderground v.1.15,2013-09-23 06:40:00,
2013-09-23 02:50:00,43.3,38.5,29.55,NW,321,3.0,4.0,83,0.00,,,0.00,Wunderground v.1.15,2013-09-23 06:50:00,
2013-09-23 03:00:00,43.2,38.7,29.55,NNE,12,2.0,2.0,84,0.00,,,0.00,Wunderground v.1.15,2013-09-23 07:00:00,
2013-09-23 03:05:00,43.2,39.0,29.56,NNW,340,1.0,3.0,85,0.00,,,0.00,Wunderground v.1.15,2013-09-23 07:05:00,
2013-09-23 03:10:00,43.1,38.9,29.56,West,263,2.0,2.0,85,0.00,,,0.00,Wunderground v.1.15,2013-09-23 07:10:00,
2013-09-23 03:15:00,43.1,38.6,29.56,NNW,342,3.0,3.0,84,0.00,,,0.00,Wunderground v.1.15,2013-09-23 07:15:00,
2013-09-23 03:25:00,43.1,38.6,29.56,WNW,301,4.0,6.0,84,0.00,,,0.00,Wunderground v.1.15,2013-09-23 07:25:00,
2013-09-23 03:35:00,42.9,38.1,29.56,North,355,4.0,8.0,83,0.00,,,0.00,Wunderground v.1.15,2013-09-23 07:35:00,
2013-09-23 03:40:00,42.9,38.1,29.56,NW,318,4.0,4.0,83,0.00,,,0.00,Wunderground v.1.15,2013-09-23 07:40:00,
2013-09-23 03:50:00,42.8,37.7,29.57,NNW,333,3.0,3.0,82,0.00,,,0.00,Wunderground v.1.15,2013-09-23 07:50:00,
2013-09-23 04:00:00,42.8,37.7,29.57,WNW,303,4.0,4.0,82,0.00,,,0.00,Wunderground v.1.15,2013-09-23 08:00:00,
2013-09-23 04:10:00,42.6,37.8,29.56,NW,321,4.0,6.0,83,0.00,,,0.00,Wunderground v.1.15,2013-09-23 08:10:00,
2013-09-23 04:20:00,42.5,38.0,29.56,NW,313,4.0,4.0,84,0.00,,,0.00,Wunderground v.1.15,2013-09-23 08:20:00,
2013-09-23 04:25:00,42.5,38.0,29.56,NW,304,4.0,7.0,84,0.00,,,0.00,Wunderground v.1.15,2013-09-23 08:25:00,
2013-09-23 04:35:00,42.3,37.8,29.57,WNW,285,3.0,8.0,84,0.00,,,0.00,Wunderground v.1.15,2013-09-23 08:35:00,
2013-09-23 04:40:00,42.4,37.9,29.57,NNW,329,4.0,4.0,84,0.00,,,0.00,Wunderground v.1.15,2013-09-23 08:40:00,
2013-09-23 04:50:00,42.4,37.6,29.57,NNW,333,5.0,9.0,83,0.00,,,0.00,Wunderground v.1.15,2013-09-23 08:50:00,
2013-09-23 04:55:00,42.4,37.6,29.57,NW,322,6.0,9.0,83,0.00,,,0.00,Wunderground v.1.15,2013-09-23 08:55:00,
2013-09-23 05:05:00,42.2,37.7,29.57,NNW,347,4.0,8.0,84,0.00,,,0.00,Wunderground v.1.15,2013-09-23 09:05:00,
2013-09-23 05:10:00,42.2,37.4,29.57,WNW,300,5.0,5.0,83,0.00,,,0.00,Wunderground v.1.15,2013-09-23 09:10:00,
2013-09-23 05:20:00,42.1,37.3,29.57,WNW,298,7.0,7.0,83,0.00,,,0.00,Wunderground v.1.15,2013-09-23 09:20:00,
2013-09-23 05:30:00,42.1,37.3,29.58,NNW,334,6.0,9.0,83,0.00,,,0.00,Wunderground v.1.15,2013-09-23 09:30:00,
2013-09-23 05:35:00,42.1,37.3,29.58,WNW,286,6.0,9.0,83,0.00,,,0.00,Wunderground v.1.15,2013-09-23 09:35:00,
2013-09-23 05:40:00,42.1,37.6,29.58,NNW,329,6.0,6.0,84,0.00,,,0.00,Wunderground v.1.15,2013-09-23 09:40:00,
2013-09-23 05:50:00,42.0,37.5,29.58,NNW,331,4.0,4.0,84,0.00,,,0.00,Wunderground v.1.15,2013-09-23 09:50:00,
2013-09-23 06:00:00,41.9,37.7,29.58,WNW,301,3.0,3.0,85,0.00,,,0.00,Wunderground v.1.15,2013-09-23 10:00:00,
2013-09-23 06:10:00,41.9,37.7,29.59,NNW,329,3.0,4.0,85,0.00,,,0.00,Wunderground v.1.15,2013-09-23 10:10:00,
2013-09-23 06:15:00,41.9,37.7,29.59,North,360,3.0,4.0,85,0.00,,,0.00,Wunderground v.1.15,2013-09-23 10:15:00,
2013-09-23 06:25:00,41.8,37.6,29.59,NNW,340,2.0,4.0,85,0.00,,,0.00,Wunderground v.1.15,2013-09-23 10:25:00,
2013-09-23 06:30:00,41.8,37.6,29.60,NW,312,2.0,4.0,85,0.00,,,0.00,Wunderground v.1.15,2013-09-23 10:30:00,
2013-09-23 06:40:00,41.7,37.2,29.60,WNW,287,4.0,7.0,84,0.00,,,0.00,Wunderground v.1.15,2013-09-23 10:40:00,
2013-09-23 06:45:00,41.7,37.2,29.60,NNW,336,5.0,7.0,84,0.00,,,0.00,Wunderground v.1.15,2013-09-23 10:45:00,
2013-09-23 06:50:00,41.6,36.8,29.60,North,350,5.0,7.0,83,0.00,,,0.00,Wunderground v.1.15,2013-09-23 10:50:00,
2013-09-23 07:00:00,41.6,36.5,29.61,NNW,328,7.0,7.0,82,0.00,,,0.00,Wunderground v.1.15,2013-09-23 11:00:00,
2013-09-23 07:05:00,41.5,36.4,29.61,NNW,333,6.0,7.0,82,0.00,,,0.00,Wunderground v.1.15,2013-09-23 11:05:00,
2013-09-23 07:10:00,41.5,36.7,29.62,NNW,329,3.0,3.0,83,0.00,,,0.00,Wunderground v.1.15,2013-09-23 11:10:00,
2013-09-23 07:20:00,41.5,36.7,29.62,NNW,327,2.0,2.0,83,0.00,,,0.00,Wunderground v.1.15,2013-09-23 11:20:00,
2013-09-23 07:30:00,41.5,36.7,29.62,NNE,16,4.0,4.0,83,0.00,,,0.00,Wunderground v.1.15,2013-09-23 11:30:00,
2013-09-23 07:40:00,41.6,36.8,29.62,NW,319,3.0,6.0,83,0.00,,,0.00,Wunderground v.1.15,2013-09-23 11:40:00,
2013-09-23 07:45:00,41.6,36.8,29.62,NNW,344,3.0,6.0,83,0.00,,,0.00,Wunderground v.1.15,2013-09-23 11:45:00,
2013-09-23 07:50:00,41.6,37.1,29.62,NNW,338,2.0,2.0,84,0.00,,,0.00,Wunderground v.1.15,2013-09-23 11:50:00,
2013-09-23 08:00:00,41.7,36.9,29.63,North,355,2.0,2.0,83,0.00,,,0.00,Wunderground v.1.15,2013-09-23 12:00:00,
2013-09-23 08:10:00,41.7,36.9,29.63,WNW,301,5.0,6.0,83,0.00,,,0.00,Wunderground v.1.15,2013-09-23 12:10:00,
2013-09-23 08:20:00,41.6,36.8,29.64,NNW,330,6.0,6.0,83,0.00,,,0.00,Wunderground v.1.15,2013-09-23 12:20:00,
2013-09-23 08:25:00,41.6,36.8,29.64,NW,317,7.0,8.0,83,0.00,,,0.00,Wunderground v.1.15,2013-09-23 12:25:00,
2013-09-23 08:30:00,41.6,36.8,29.64,NW,326,6.0,6.0,83,0.00,,,0.00,Wunderground v.1.15,2013-09-23 12:30:00,
2013-09-23 08:40:00,41.7,36.9,29.64,North,5,6.0,6.0,83,0.00,,,0.00,Wunderground v.1.15,2013-09-23 12:40:00,
2013-09-23 08:45:00,41.8,37.3,29.65,NW,323,4.0,10.0,84,0.00,,,0.00,Wunderground v.1.15,2013-09-23 12:45:00,
2013-09-23 08:50:00,41.8,37.0,29.65,North,355,4.0,6.0,83,0.00,,,0.00,Wunderground v.1.15,2013-09-23 12:50:00,
2013-09-23 09:00:00,41.8,37.0,29.65,NW,304,6.0,6.0,83,0.00,,,0.00,Wunderground v.1.15,2013-09-23 13:00:00,
2013-09-23 09:10:00,41.8,37.3,29.65,NW,306,5.0,5.0,84,0.00,,,0.00,Wunderground v.1.15,2013-09-23 13:10:00,
2013-09-23 09:15:00,41.8,37.0,29.66,WNW,292,5.0,5.0,83,0.00,,,0.00,Wunderground v.1.15,2013-09-23 13:15:00,
2013-09-23 09:25:00,41.9,37.1,29.66,NNW,328,4.0,5.0,83,0.00,,,0.00,Wunderground v.1.15,2013-09-23 13:25:00,
2013-09-23 09:30:00,42.0,37.2,29.66,WNW,288,4.0,4.0,83,0.00,,,0.00,Wunderground v.1.15,2013-09-23 13:30:00,
2013-09-23 09:40:00,42.1,37.3,29.66,WNW,296,5.0,5.0,83,0.00,,,0.00,Wunderground v.1.15,2013-09-23 13:40:00,
2013-09-23 09:45:00,42.2,37.1,29.66,NW,321,4.0,5.0,82,0.00,,,0.00,Wunderground v.1.15,2013-09-23 13:45:00,
2013-09-23 09:50:00,42.2,37.1,29.66,NW,312,5.0,5.0,82,0.00,,,0.00,Wunderground v.1.15,2013-09-23 13:50:00,
2013-09-23 10:00:00,42.4,37.3,29.66,NW,323,4.0,4.0,82,0.00,,,0.00,Wunderground v.1.15,2013-09-23 14:00:00,
2013-09-23 10:05:00,42.5,37.4,29.66,NNW,329,3.0,4.0,82,0.00,,,0.00,Wunderground v.1.15,2013-09-23 14:05:00,
2013-09-23 10:10:00,42.7,37.9,29.66,NNW,345,3.0,3.0,83,0.00,,,0.00,Wunderground v.1.15,2013-09-23 14:10:00,
2013-09-23 10:20:00,42.7,37.6,29.66,NW,314,6.0,6.0,82,0.00,,,0.00,Wunderground v.1.15,2013-09-23 14:20:00,
2013-09-23 10:25:00,42.8,37.4,29.67,NNE,15,6.0,6.0,81,0.00,,,0.00,Wunderground v.1.15,2013-09-23 14:25:00,
2013-09-23 10:30:00,42.8,37.4,29.67,NW,309,6.0,7.0,81,0.00,,,0.00,Wunderground v.1.15,2013-09-23 14:30:00,
2013-09-23 10:35:00,42.8,37.4,29.67,WNW,285,5.0,7.0,81,0.00,,,0.00,Wunderground v.1.15,2013-09-23 14:35:00,
2013-09-23 10:40:00,42.9,37.5,29.67,WNW,288,5.0,6.0,81,0.00,,,0.00,Wunderground v.1.15,2013-09-23 14:40:00,
2013-09-23 10:45:00,42.8,37.1,29.67,NW,317,6.0,6.0,80,0.00,,,0.00,Wunderground v.1.15,2013-09-23 14:45:00,
2013-09-23 10:50:00,42.8,37.4,29.67,NNW,327,6.0,6.0,81,0.00,,,0.00,Wunderground v.1.15,2013-09-23 14:50:00,
2013-09-23 10:55:00,42.8,37.4,29.67,WNW,302,6.0,6.0,81,0.00,,,0.00,Wunderground v.1.15,2013-09-23 14:55:00,
2013-09-23 11:05:00,43.1,37.3,29.68,NW,304,7.0,7.0,80,0.00,,,0.00,Wunderground v.1.15,2013-09-23 15:05:00,
2013-09-23 11:10:00,43.2,37.4,29.68,NW,325,7.0,8.0,80,0.00,,,0.00,Wunderground v.1.15,2013-09-23 15:10:00,
2013-09-23 11:15:00,43.3,37.5,29.68,NNW,329,6.0,8.0,80,0.00,,,0.00,Wunderground v.1.15,2013-09-23 15:15:00,
2013-09-23 11:20:00,43.6,38.2,29.68,WNW,302,5.0,5.0,81,0.00,,,0.00,Wunderground v.1.15,2013-09-23 15:20:00,
2013-09-23 11:25:00,43.9,38.1,29.68,NW,322,5.0,5.0,80,0.00,,,0.00,Wunderground v.1.15,2013-09-23 15:25:00,
2013-09-23 11:30:00,44.0,38.2,29.68,WNW,296,4.0,4.0,80,0.00,,,0.00,Wunderground v.1.15,2013-09-23 15:30:00,
2013-09-23 11:35:00,44.2,38.1,29.68,NW,315,4.0,5.0,79,0.00,,,0.00,Wunderground v.1.15,2013-09-23 15:35:00,
2013-09-23 11:45:00,43.9,37.8,29.68,WNW,302,6.0,6.0,79,0.00,,,0.00,Wunderground v.1.15,2013-09-23 15:45:00,
2013-09-23 11:50:00,44.2,38.4,29.68,West,269,5.0,5.0,80,0.00,,,0.00,Wunderground v.1.15,2013-09-23 15:50:00,
2013-09-23 12:00:00,44.3,37.9,29.68,WNW,291,7.0,8.0,78,0.00,,,0.00,Wunderground v.1.15,2013-09-23 16:00:00,
2013-09-23 12:10:00,44.8,38.4,29.68,NW,320,6.0,6.0,78,0.00,,,0.00,Wunderground v.1.15,2013-09-23 16:10:00,
2013-09-23 12:20:00,45.2,39.1,29.68,NW,318,5.0,5.0,79,0.00,,,0.00,Wunderground v.1.15,2013-09-23 16:20:00,
2013-09-23 12:30:00,45.9,39.1,29.68,NW,313,6.0,12.0,77,0.00,,,0.00,Wunderground v.1.15,2013-09-23 16:30:00,
2013-09-23 12:35:00,45.9,39.8,29.68,North,10,7.0,12.0,79,0.00,,,0.00,Wunderground v.1.15,2013-09-23 16:35:00,
2013-09-23 12:40:00,46.2,39.7,29.68,WNW,282,6.0,12.0,78,0.00,,,0.00,Wunderground v.1.15,2013-09-23 16:40:00,
2013-09-23 12:45:00,45.9,39.1,29.68,WNW,294,6.0,12.0,77,0.00,,,0.00,Wunderground v.1.15,2013-09-23 16:45:00,
2013-09-23 12:50:00,45.8,39.0,29.68,NNW,344,7.0,7.0,77,0.00,,,0.00,Wunderground v.1.15,2013-09-23 16:50:00,
2013-09-23 12:55:00,45.9,39.1,29.68,NNE,24,7.0,7.0,77,0.00,,,0.00,Wunderground v.1.15,2013-09-23 16:55:00,
2013-09-23 13:05:00,45.9,39.4,29.69,NE,47,8.0,9.0,78,0.00,,,0.00,Wunderground v.1.15,2013-09-23 17:05:00,
2013-09-23 13:10:00,46.3,40.5,29.68,WNW,297,7.0,7.0,80,0.00,,,0.00,Wunderground v.1.15,2013-09-23 17:10:00,
2013-09-23 13:15:00,46.9,40.4,29.68,NNW,342,6.0,7.0,78,0.00,,,0.00,Wunderground v.1.15,2013-09-23 17:15:00,
2013-09-23 13:20:00,47.0,39.5,29.68,NW,316,8.0,8.0,75,0.00,,,0.00,Wunderground v.1.15,2013-09-23 17:20:00,
2013-09-23 13:30:00,46.7,39.9,29.68,WNW,286,7.0,7.0,77,0.00,,,0.00,Wunderground v.1.15,2013-09-23 17:30:00,
2013-09-23 13:40:00,46.1,39.0,29.69,NW,319,9.0,9.0,76,0.00,,,0.00,Wunderground v.1.15,2013-09-23 17:40:00,
2013-09-23 13:45:00,45.6,38.8,29.69,NW,304,9.0,9.0,77,0.00,,,0.00,Wunderground v.1.15,2013-09-23 17:45:00,
2013-09-23 13:50:00,45.7,39.2,29.69,WNW,298,7.0,7.0,78,0.00,,,0.00,Wunderground v.1.15,2013-09-23 17:50:00,
2013-09-23 13:55:00,45.8,39.7,29.69,NNE,30,7.0,8.0,79,0.00,,,0.00,Wunderground v.1.15,2013-09-23 17:55:00,
2013-09-23 14:05:00,45.8,39.7,29.69,NNW,344,7.0,8.0,79,0.00,,,0.00,Wunderground v.1.15,2013-09-23 18:05:00,
2013-09-23 14:10:00,45.7,39.2,29.69,NW,312,7.0,7.0,78,0.00,,,0.00,Wunderground v.1.15,2013-09-23 18:10:00,
2013-09-23 14:15:00,45.5,39.4,29.69,WNW,303,6.0,7.0,79,0.00,,,0.00,Wunderground v.1.15,2013-09-23 18:15:00,
2013-09-23 14:20:00,45.6,39.5,29.69,NW,304,5.0,8.0,79,0.00,,,0.00,Wunderground v.1.15,2013-09-23 18:20:00,
2013-09-23 14:30:00,45.8,39.7,29.68,NW,317,6.0,8.0,79,0.00,,,0.00,Wunderground v.1.15,2013-09-23 18:30:00,
2013-09-23 14:40:00,45.7,39.9,29.68,WNW,294,5.0,9.0,80,0.00,,,0.00,Wunderground v.1.15,2013-09-23 18:40:00,
2013-09-23 14:50:00,46.1,39.9,29.68,NW,307,6.0,6.0,79,0.00,,,0.00,Wunderground v.1.15,2013-09-23 18:50:00,
2013-09-23 15:00:00,47.2,39.7,29.68,NW,321,6.0,12.0,75,0.00,,,0.00,Wunderground v.1.15,2013-09-23 19:00:00,
2013-09-23 15:10:00,46.3,39.5,29.68,NNW,343,7.0,7.0,77,0.00,,,0.00,Wunderground v.1.15,2013-09-23 19:10:00,
2013-09-23 15:15:00,46.1,39.6,29.68,NW,317,6.0,7.0,78,0.00,,,0.00,Wunderground v.1.15,2013-09-23 19:15:00,
2013-09-23 15:20:00,46.0,39.5,29.68,North,5,5.0,5.0,78,0.00,,,0.00,Wunderground v.1.15,2013-09-23 19:20:00,
2013-09-23 15:25:00,46.0,40.2,29.68,WNW,296,5.0,5.0,80,0.00,,,0.00,Wunderground v.1.15,2013-09-23 19:25:00,
2013-09-23 15:30:00,46.0,39.5,29.68,NW,317,5.0,7.0,78,0.00,,,0.00,Wunderground v.1.15,2013-09-23 19:30:00,
2013-09-23 15:35:00,45.8,39.7,29.68,NW,306,6.0,8.0,79,0.00,,,0.00,Wunderground v.1.15,2013-09-23 19:35:00,
2013-09-23 15:40:00,45.4,39.3,29.68,NNW,336,7.0,7.0,79,0.00,,,0.00,Wunderground v.1.15,2013-09-23 19:40:00,
2013-09-23 15:50:00,45.6,39.8,29.68,NW,323,6.0,6.0,80,0.00,,,0.00,Wunderground v.1.15,2013-09-23 19:50:00,
2013-09-23 16:00:00,46.1,39.6,29.68,NW,321,7.0,7.0,78,0.00,,,0.00,Wunderground v.1.15,2013-09-23 20:00:00,
2013-09-23 16:05:00,45.9,39.1,29.68,North,9,8.0,8.0,77,0.00,,,0.00,Wunderground v.1.15,2013-09-23 20:05:00,
2013-09-23 16:15:00,45.8,39.7,29.68,NW,311,6.0,8.0,79,0.00,,,0.00,Wunderground v.1.15,2013-09-23 20:15:00,
2013-09-23 16:20:00,45.6,39.5,29.68,NW,309,8.0,8.0,79,0.00,,,0.00,Wunderground v.1.15,2013-09-23 20:20:00,
2013-09-23 16:25:00,45.3,39.5,29.68,WNW,290,9.0,9.0,80,0.00,,,0.00,Wunderground v.1.15,2013-09-23 20:25:00,
2013-09-23 16:30:00,45.3,39.2,29.68,NW,313,8.0,16.0,79,0.00,,,0.00,Wunderground v.1.15,2013-09-23 20:30:00,
2013-09-23 16:35:00,45.3,39.2,29.68,NW,318,7.0,16.0,79,0.00,,,0.00,Wunderground v.1.15,2013-09-23 20:35:00,
2013-09-23 16:40:00,45.5,39.4,29.68,NW,308,8.0,8.0,79,0.00,,,0.00,Wunderground v.1.15,2013-09-23 20:40:00,
2013-09-23 16:50:00,45.7,39.6,29.68,NNW,338,8.0,13.0,79,0.00,,,0.00,Wunderground v.1.15,2013-09-23 20:50:00,
2013-09-23 17:00:00,45.8,39.7,29.69,WNW,293,6.0,7.0,79,0.00,,,0.00,Wunderground v.1.15,2013-09-23 21:00:00,
2013-09-23 17:10:00,46.0,39.5,29.69,WNW,298,6.0,13.0,78,0.00,,,0.00,Wunderground v.1.15,2013-09-23 21:10:00,
2013-09-23 17:20:00,45.6,39.5,29.69,NW,321,8.0,8.0,79,0.00,,,0.00,Wunderground v.1.15,2013-09-23 21:20:00,
2013-09-23 17:30:00,45.5,39.4,29.69,NW,314,7.0,7.0,79,0.00,,,0.00,Wunderground v.1.15,2013-09-23 21:30:00,
2013-09-23 17:35:00,45.5,39.0,29.69,West,279,7.0,7.0,78,0.00,,,0.00,Wunderground v.1.15,2013-09-23 21:35:00,
2013-09-23 17:40:00,45.5,39.0,29.69,NW,313,8.0,8.0,78,0.00,,,0.00,Wunderground v.1.15,2013-09-23 21:40:00,
2013-09-23 17:50:00,45.4,39.3,29.69,NW,321,6.0,14.0,79,0.00,,,0.00,Wunderground v.1.15,2013-09-23 21:50:00,
2013-09-23 18:00:00,45.3,39.2,29.70,NW,309,6.0,6.0,79,0.00,,,0.00,Wunderground v.1.15,2013-09-23 22:00:00,
2013-09-23 18:10:00,45.2,39.1,29.70,NNW,348,7.0,7.0,79,0.00,,,0.00,Wunderground v.1.15,2013-09-23 22:10:00,
2013-09-23 18:20:00,45.1,39.0,29.70,NNW,335,6.0,6.0,79,0.00,,,0.00,Wunderground v.1.15,2013-09-23 22:20:00,
2013-09-23 18:30:00,44.9,38.8,29.70,WNW,283,6.0,6.0,79,0.00,,,0.00,Wunderground v.1.15,2013-09-23 22:30:00,
2013-09-23 18:40:00,44.7,38.9,29.70,NW,313,6.0,6.0,80,0.00,,,0.00,Wunderground v.1.15,2013-09-23 22:40:00,
2013-09-23 18:45:00,44.6,39.1,29.70,NNW,327,5.0,13.0,81,0.00,,,0.00,Wunderground v.1.15,2013-09-23 22:45:00,
2013-09-23 18:50:00,44.6,39.1,29.70,WNW,288,5.0,5.0,81,0.00,,,0.00,Wunderground v.1.15,2013-09-23 22:50:00,
2013-09-23 19:00:00,44.5,39.3,29.70,NW,321,4.0,4.0,82,0.00,,,0.00,Wunderground v.1.15,2013-09-23 23:00:00,
2013-09-23 19:10:00,44.4,39.2,29.70,North,355,4.0,4.0,82,0.00,,,0.00,Wunderground v.1.15,2013-09-23 23:10:00,
2013-09-23 19:20:00,44.4,39.6,29.70,NNW,338,2.0,3.0,83,0.00,,,0.00,Wunderground v.1.15,2013-09-23 23:20:00,
2013-09-23 19:30:00,44.5,39.7,29.70,NNW,327,3.0,4.0,83,0.00,,,0.00,Wunderground v.1.15,2013-09-23 23:30:00,
2013-09-23 19:35:00,44.5,39.7,29.70,North,9,3.0,4.0,83,0.00,,,0.00,Wunderground v.1.15,2013-09-23 23:35:00,
2013-09-23 19:40:00,44.5,40.0,29.70,NW,316,2.0,2.0,84,0.00,,,0.00,Wunderground v.1.15,2013-09-23 23:40:00,
2013-09-23 19:45:00,44.5,40.0,29.70,NW,314,2.0,6.0,84,0.00,,,0.00,Wunderground v.1.15,2013-09-23 23:45:00,
2013-09-23 19:50:00,44.6,39.8,29.70,NNW,336,4.0,4.0,83,0.00,,,0.00,Wunderground v.1.15,2013-09-23 23:50:00,
2013-09-23 19:55:00,44.6,40.1,29.71,NNW,346,4.0,4.0,84,0.00,,,0.00,Wunderground v.1.15,2013-09-23 23:55:00,
2013-09-23 20:05:00,44.6,40.1,29.71,NW,311,2.0,3.0,84,0.00,,,0.00,Wunderground v.1.15,2013-09-24 00:05:00,
2013-09-23 20:10:00,44.5,40.0,29.71,NNE,13,3.0,8.0,84,0.00,,,0.00,Wunderground v.1.15,2013-09-24 00:10:00,
2013-09-23 20:15:00,44.6,40.1,29.71,NW,323,3.0,8.0,84,0.00,,,0.00,Wunderground v.1.15,2013-09-24 00:15:00,
2013-09-23 20:25:00,44.6,40.1,29.71,North,355,4.0,4.0,84,0.00,,,0.00,Wunderground v.1.15,2013-09-24 00:25:00,
2013-09-23 20:35:00,44.6,40.1,29.71,WNW,286,3.0,5.0,84,0.00,,,0.00,Wunderground v.1.15,2013-09-24 00:35:00,
2013-09-23 20:45:00,44.6,40.1,29.71,West,281,4.0,7.0,84,0.00,,,0.00,Wunderground v.1.15,2013-09-24 00:45:00,
2013-09-23 20:50:00,44.6,40.1,29.71,NW,305,4.0,8.0,84,0.00,,,0.00,Wunderground v.1.15,2013-09-24 00:50:00,
2013-09-23 20:55:00,44.6,40.1,29.71,WNW,291,5.0,8.0,84,0.00,,,0.00,Wunderground v.1.15,2013-09-24 00:55:00,
2013-09-23 21:00:00,44.7,40.2,29.71,North,349,5.0,5.0,84,0.00,,,0.00,Wunderground v.1.15,2013-09-24 01:00:00,
2013-09-23 21:05:00,44.7,40.2,29.71,NW,305,5.0,5.0,84,0.00,,,0.00,Wunderground v.1.15,2013-09-24 01:05:00,
2013-09-23 21:10:00,44.7,40.2,29.71,NNW,329,4.0,8.0,84,0.00,,,0.00,Wunderground v.1.15,2013-09-24 01:10:00,
2013-09-23 21:20:00,44.7,39.9,29.71,NNE,19,5.0,6.0,83,0.00,,,0.00,Wunderground v.1.15,2013-09-24 01:20:00,
2013-09-23 21:30:00,44.7,39.9,29.71,NNW,346,4.0,4.0,83,0.00,,,0.00,Wunderground v.1.15,2013-09-24 01:30:00,
2013-09-23 21:40:00,44.7,40.2,29.71,NNE,26,4.0,4.0,84,0.00,,,0.00,Wunderground v.1.15,2013-09-24 01:40:00,
2013-09-23 21:50:00,44.7,40.2,29.71,North,351,4.0,6.0,84,0.00,,,0.00,Wunderground v.1.15,2013-09-24 01:50:00,
2013-09-23 22:00:00,44.7,40.2,29.71,WNW,294,5.0,6.0,84,0.00,,,0.00,Wunderground v.1.15,2013-09-24 02:00:00,
2013-09-23 22:05:00,44.7,39.9,29.71,NW,323,5.0,8.0,83,0.00,,,0.00,Wunderground v.1.15,2013-09-24 02:05:00,
2013-09-23 22:15:00,44.7,39.9,29.71,NW,325,6.0,10.0,83,0.00,,,0.00,Wunderground v.1.15,2013-09-24 02:15:00,
2013-09-23 22:20:00,44.7,39.9,29.71,NW,308,6.0,6.0,83,0.00,,,0.00,Wunderground v.1.15,2013-09-24 02:20:00,
2013-09-23 22:25:00,44.7,39.9,29.70,NW,307,6.0,6.0,83,0.00,,,0.00,Wunderground v.1.15,2013-09-24 02:25:00,
2013-09-23 22:30:00,44.8,40.0,29.70,NW,315,6.0,6.0,83,0.00,,,0.00,Wunderground v.1.15,2013-09-24 02:30:00,
2013-09-23 22:35:00,44.8,40.0,29.70,WNW,301,5.0,8.0,83,0.00,,,0.00,Wunderground v.1.15,2013-09-24 02:35:00,
2013-09-23 22:40:00,44.7,39.9,29.70,North,355,5.0,5.0,83,0.00,,,0.00,Wunderground v.1.15,2013-09-24 02:40:00,
2013-09-23 22:50:00,44.7,39.9,29.70,WNW,300,4.0,8.0,83,0.00,,,0.00,Wunderground v.1.15,2013-09-24 02:50:00,
2013-09-23 23:00:00,44.7,39.9,29.70,NW,309,5.0,8.0,83,0.00,,,0.00,Wunderground v.1.15,2013-09-24 03:00:00,
2013-09-23 23:10:00,44.7,39.9,29.70,NW,305,6.0,6.0,83,0.00,,,0.00,Wunderground v.1.15,2013-09-24 03:10:00,
2013-09-23 23:20:00,44.6,40.1,29.70,WNW,302,4.0,5.0,84,0.00,,,0.00,Wunderground v.1.15,2013-09-24 03:20:00,
2013-09-23 23:30:00,44.5,40.0,29.70,NW,315,4.0,4.0,84,0.00,,,0.00,Wunderground v.1.15,2013-09-24 03:30:00,
2013-09-23 23:35:00,44.5,40.0,29.70,North,360,4.0,6.0,84,0.00,,,0.00,Wunderground v.1.15,2013-09-24 03:35:00,
2013-09-23 23:40:00,44.5,39.7,29.70,North,355,4.0,5.0,83,0.00,,,0.00,Wunderground v.1.15,2013-09-24 03:40:00,
2013-09-23 23:50:00,44.5,40.0,29.70,NW,318,3.0,3.0,84,0.00,,,0.00,Wunderground v.1.15,2013-09-24 03:50:00,
2013-09-23 23:55:00,44.5,39.7,29.70,NW,317,3.0,4.0,83,0.00,,,0.00,Wunderground v.1.15,2013-09-24 03:55:00,